Location: Newark
(52.8300°N, 8.0000°E)
Time: 19:51:16
(UTC+00:00)

STARLINK-1078 - Pass Details

Date: 01 February 2020
Orbit: 349 x 351 km, 53.0° (Epoch: 21 February)

Event Time Altitude Azimuth Distance (km) Brightness Sun altitude
Rises 17:22:46 0° 282° (WNW) 2,175 7.9 -10.8°
Reaches altitude 10° 17:25:04 10° 266° (W) 1,329 7.1 -11.1°
Maximum altitude 17:27:24 21° 214° (SW) 856 5.2 -11.5°
Drops below altitude 10° 17:29:44 10° 161° (SSE) 1,324 5.5 -11.8°
Enters shadow 17:32:00 - 145° (SE) 2,160 6.4 -12.1°
